Weather History for Warsaw, IN

Change the Weather History Date:

Wednesday, August 14, 2013

  Actual Average Record
Temperature  
Mean Temperature 58 °F -  
Max Temperature 69 °F 81 °F 93 °F (1959)
Min Temperature 46 °F 60 °F 36 °F (1964)
Degree Days  
Heating Degree Days 8    
Growing Degree Days 8 (Base 50)    
Moisture  
Dew Point 47 °F    
Average Humidity 71    
Maximum Humidity 94    
Minimum Humidity 43    
Precipitation  
Precipitation 0.00 in - - ()
Sea Level Pressure  
Sea Level Pressure 30.18 in    
Wind  
Wind Speed 4 mph (NNW)    
Max Wind Speed 10 mph    
Max Gust Speed -    
Visibility 10 miles    
Events      
Averages and records for this station are not official NWS values.
T = Trace of Precipitation, MM = Missing Value Source: NWS Daily Summary

Daily Weather History Graph

Daily Weather History Graph

Search for Another Location

Airport:

Trip Planner

Search our weather history database for the weather conditions in past years. The results will help you decide how hot, cold, wet, or windy it might be!

Date:

Astronomy

Aug. 14, 2013 Rise Set
Actual Time 6:51 AM EDT 8:43 PM EDT
Civil Twilight 6:22 AM EDT 9:13 PM EDT
Nautical Twilight 5:45 AM EDT 9:49 PM EDT
Astronomical Twilight 5:06 AM EDT 10:27 PM EDT
Moon 2:55 PM EDT (8/14) 12:14 AM EDT (8/14)
Length of Visible Light 14h 50m
Length of Day
13h 51m
First Quarter, 52% of the Moon is Illuminated
Aug 14
First Quarter
Aug 20
Full
Aug 28
Last Quarter
Sep 5
New
Sep 12
First Quarter

Hourly Weather History & Observations

Time (EDT) Temp. Windchill Dew Point Humidity Pressure Visibility Wind Dir Wind Speed Gust Speed Precip Events Conditions
12:15 AM 51.8 °F - 46.4 °F 82% 30.13 in 10.0 mi NW 4.6 mph - N/A   Clear
12:35 AM 51.8 °F - 46.4 °F 82% 30.13 in 10.0 mi NW 4.6 mph - N/A   Clear
12:55 AM 51.8 °F - 46.4 °F 82% 30.13 in 10.0 mi NW 3.5 mph - N/A   Clear
1:15 AM 51.8 °F - 46.4 °F 82% 30.14 in 10.0 mi NW 4.6 mph - N/A   Clear
1:35 AM 51.8 °F - 46.4 °F 82% 30.14 in 10.0 mi NW 4.6 mph - N/A   Clear
1:55 AM 48.2 °F - 46.4 °F 93% 30.14 in 10.0 mi NW 3.5 mph - N/A   Clear
2:15 AM 50.0 °F - 46.4 °F 87% 30.14 in 10.0 mi WNW 3.5 mph - N/A   Clear
2:35 AM 50.0 °F - 46.4 °F 87% 30.14 in 10.0 mi Calm Calm - N/A   Clear
2:55 AM 50.0 °F - 46.4 °F 87% 30.14 in 10.0 mi WNW 3.5 mph - N/A   Clear
3:15 AM 46.4 °F 44.3 °F 44.6 °F 93% 30.15 in 10.0 mi NW 4.6 mph - N/A   Clear
3:35 AM 48.2 °F - 46.4 °F 93% 30.15 in 10.0 mi NW 4.6 mph - N/A   Clear
3:55 AM 48.2 °F - 46.4 °F 93% 30.15 in 10.0 mi NW 4.6 mph - N/A   Clear
4:15 AM 48.2 °F - 46.4 °F 93% 30.15 in 10.0 mi NW 3.5 mph - N/A   Clear
4:35 AM 48.2 °F - 46.4 °F 93% 30.15 in 10.0 mi Calm Calm - N/A   Clear
4:55 AM 48.2 °F - 46.4 °F 93% 30.15 in 10.0 mi Calm Calm - N/A   Clear
5:15 AM 48.2 °F - 44.6 °F 87% 30.15 in 10.0 mi Calm Calm - N/A   Clear
5:35 AM 46.4 °F - 44.6 °F 93% 30.16 in 10.0 mi Calm Calm - N/A   Clear
5:55 AM 46.4 °F - 44.6 °F 93% 30.16 in 10.0 mi Calm Calm - N/A   Clear
6:15 AM 46.4 °F - 44.6 °F 93% 30.17 in 10.0 mi Calm Calm - N/A   Clear
6:35 AM 46.4 °F - 44.6 °F 93% 30.17 in 10.0 mi Calm Calm - N/A   Clear
6:55 AM 46.4 °F - 44.6 °F 93% 30.18 in 10.0 mi Calm Calm - N/A   Clear
7:15 AM 46.4 °F - 44.6 °F 93% 30.19 in 10.0 mi Calm Calm - N/A   Clear
7:35 AM 46.4 °F - 44.6 °F 93% 30.20 in 10.0 mi Calm Calm - N/A   Clear
7:55 AM 48.2 °F - 44.6 °F 87% 30.20 in 10.0 mi Calm Calm - N/A   Clear
8:15 AM 50.0 °F - 46.4 °F 87% 30.20 in 10.0 mi North 3.5 mph - N/A   Clear
8:35 AM 51.8 °F - 46.4 °F 82% 30.21 in 10.0 mi Calm Calm - N/A   Clear
8:55 AM 53.6 °F - 46.4 °F 77% 30.21 in 10.0 mi North 3.5 mph - N/A   Clear
9:15 AM 53.6 °F - 48.2 °F 82% 30.22 in 10.0 mi Calm Calm - N/A   Clear
9:35 AM 55.4 °F - 48.2 °F 77% 30.22 in 10.0 mi North 4.6 mph - N/A   Clear
9:55 AM 57.2 °F - 50.0 °F 77% 30.22 in 10.0 mi NNE 5.8 mph - N/A   Clear
10:15 AM 59.0 °F - 48.2 °F 67% 30.22 in 10.0 mi NNE 5.8 mph - N/A   Clear
10:35 AM 59.0 °F - 48.2 °F 67% 30.22 in 10.0 mi North 4.6 mph - N/A   Clear
10:55 AM 60.8 °F - 46.4 °F 59% 30.23 in 10.0 mi NNE 8.1 mph - N/A   Clear
11:15 AM 62.6 °F - 48.2 °F 59% 30.22 in 10.0 mi NNE 5.8 mph - N/A   Scattered Clouds
11:35 AM 62.6 °F - 48.2 °F 59% 30.22 in 10.0 mi ENE 4.6 mph - N/A   Mostly Cloudy
11:55 AM 62.6 °F - 46.4 °F 55% 30.23 in 10.0 mi North 9.2 mph - N/A   Mostly Cloudy
12:15 PM 60.8 °F - 46.4 °F 59% 30.23 in 10.0 mi North 10.4 mph - N/A   Mostly Cloudy
12:35 PM 62.6 °F - 46.4 °F 55% 30.22 in 10.0 mi NNE 6.9 mph - N/A   Scattered Clouds
12:55 PM 64.4 °F - 48.2 °F 56% 30.21 in 10.0 mi North 8.1 mph - N/A   Mostly Cloudy
1:15 PM 62.6 °F - 46.4 °F 55% 30.21 in 10.0 mi North 5.8 mph - N/A   Overcast
1:35 PM 64.4 °F - 46.4 °F 52% 30.21 in 10.0 mi North 6.9 mph - N/A   Overcast
1:55 PM 64.4 °F - 46.4 °F 52% 30.21 in 10.0 mi NNE 5.8 mph - N/A   Overcast
2:15 PM 64.4 °F - 46.4 °F 52% 30.20 in 10.0 mi NNE 3.5 mph - N/A   Overcast
2:35 PM 66.2 °F - 46.4 °F 49% 30.20 in 10.0 mi North 9.2 mph - N/A   Mostly Cloudy
2:55 PM 66.2 °F - 46.4 °F 49% 30.20 in 10.0 mi NNE 5.8 mph - N/A   Mostly Cloudy
3:55 PM 68.0 °F - 48.2 °F 49% 30.19 in 10.0 mi NNE 5.8 mph - N/A   Overcast
4:15 PM 68.0 °F - 48.2 °F 49% 30.19 in 10.0 mi NNE 6.9 mph - N/A   Mostly Cloudy
4:35 PM 68.0 °F - 46.4 °F 46% 30.19 in 10.0 mi NNE 4.6 mph - N/A   Scattered Clouds
4:55 PM 64.4 °F - 46.4 °F 52% 30.19 in 10.0 mi Calm Calm - N/A   Scattered Clouds
5:15 PM 68.0 °F - 46.4 °F 46% 30.19 in 10.0 mi North 4.6 mph - N/A   Mostly Cloudy
5:35 PM 66.2 °F - 46.4 °F 49% 30.19 in 10.0 mi NNW 3.5 mph - N/A   Mostly Cloudy
5:55 PM 68.0 °F - 46.4 °F 46% 30.18 in 10.0 mi NW 6.9 mph - N/A   Scattered Clouds
6:15 PM 69.8 °F - 46.4 °F 43% 30.18 in 10.0 mi NE 3.5 mph - N/A   Mostly Cloudy
6:35 PM 69.8 °F - 48.2 °F 46% 30.18 in 10.0 mi East 3.5 mph - N/A   Overcast
6:55 PM 68.0 °F - 46.4 °F 46% 30.17 in 10.0 mi WNW 5.8 mph - N/A   Overcast
7:15 PM 68.0 °F - 46.4 °F 46% 30.17 in 10.0 mi WNW 5.8 mph - N/A   Overcast
7:35 PM 68.0 °F - 46.4 °F 46% 30.17 in 10.0 mi NNW 3.5 mph - N/A   Overcast
7:55 PM 66.2 °F - 48.2 °F 52% 30.17 in 10.0 mi NW 3.5 mph - N/A   Overcast
8:15 PM 64.4 °F - 50.0 °F 59% 30.17 in 10.0 mi WNW 3.5 mph - N/A   Overcast
8:35 PM 64.4 °F - 50.0 °F 59% 30.17 in 10.0 mi WNW 5.8 mph - N/A   Overcast
8:55 PM 62.6 °F - 50.0 °F 63% 30.18 in 10.0 mi NW 5.8 mph - N/A   Overcast
9:15 PM 60.8 °F - 50.0 °F 68% 30.18 in 10.0 mi NW 4.6 mph - N/A   Overcast
9:35 PM 60.8 °F - 50.0 °F 68% 30.18 in 10.0 mi NW 5.8 mph - N/A   Overcast
9:55 PM 59.0 °F - 50.0 °F 72% 30.19 in 10.0 mi NW 4.6 mph - N/A   Overcast
10:15 PM 59.0 °F - 48.2 °F 67% 30.19 in 10.0 mi NNW 5.8 mph - N/A   Scattered Clouds
10:35 PM 57.2 °F - 48.2 °F 72% 30.20 in 10.0 mi NNW 3.5 mph - N/A   Clear
10:55 PM 55.4 °F - 48.2 °F 77% 30.20 in 10.0 mi Calm Calm - N/A   Clear
11:15 PM 53.6 °F - 50.0 °F 88% 30.19 in 10.0 mi Calm Calm - N/A   Clear
11:35 PM 53.6 °F - 48.2 °F 82% 30.20 in 10.0 mi Calm Calm - N/A   Clear
11:55 PM 51.8 °F - 50.0 °F 94% 30.20 in 10.0 mi Calm Calm - N/A   Clear